Time,TemperatureF,DewpointF,PressureIn,WindDirection,WindDirectionDegrees,WindSpeedMPH,WindSpeedGustMPH,Humidity,HourlyPrecipIn,Conditions,Clouds,dailyrainin,SolarRadiationWatts/m^2,SoftwareType,DateUTC
2013-10-20 00:04:00,48.0,37.0,-100.00,SSW,209,6.0,13.0,65,0.00,,,0.00,0.000000,,2013-10-20 05:04:00,
2013-10-20 00:43:00,47.0,36.0,-100.00,SSW,197,6.0,10.0,66,0.00,,,0.00,0.000000,,2013-10-20 05:43:00,
2013-10-20 00:52:00,47.0,36.0,-100.00,SSW,197,6.0,10.0,66,0.00,,,0.00,0.000000,,2013-10-20 05:52:00,
2013-10-20 01:02:00,47.0,36.0,-100.00,SSW,197,6.0,10.0,66,0.00,,,0.00,0.000000,,2013-10-20 06:02:00,
2013-10-20 01:12:00,47.0,36.0,-100.00,SSW,197,6.0,10.0,66,0.00,,,0.00,0.000000,,2013-10-20 06:12:00,
2013-10-20 01:42:00,47.0,37.0,-100.00,SSW,200,6.0,10.0,67,0.00,,,0.00,0.000000,,2013-10-20 06:42:00,
2013-10-20 01:52:00,47.0,37.0,-100.00,SSW,200,6.0,10.0,67,0.00,,,0.00,0.000000,,2013-10-20 06:52:00,
2013-10-20 02:02:00,47.0,37.0,-100.00,SSW,200,6.0,10.0,67,0.00,,,0.00,0.000000,,2013-10-20 07:02:00,
2013-10-20 02:12:00,47.0,37.0,-100.00,SSW,200,6.0,10.0,67,0.00,,,0.00,0.000000,,2013-10-20 07:12:00,
2013-10-20 02:42:00,45.0,36.0,-100.00,SSW,192,5.0,9.0,70,0.00,,,0.00,0.000000,,2013-10-20 07:42:00,
2013-10-20 02:52:00,45.0,36.0,-100.00,SSW,192,5.0,9.0,70,0.00,,,0.00,0.000000,,2013-10-20 07:52:00,
2013-10-20 03:02:00,45.0,36.0,-100.00,SSW,192,5.0,9.0,70,0.00,,,0.00,0.000000,,2013-10-20 08:02:00,
2013-10-20 03:11:00,45.0,36.0,-100.00,SSW,192,5.0,9.0,70,0.00,,,0.00,0.000000,,2013-10-20 08:11:00,
2013-10-20 03:42:00,45.0,37.0,-100.00,SSW,197,5.0,9.0,72,0.00,,,0.00,0.000000,,2013-10-20 08:42:00,
2013-10-20 03:52:00,45.0,37.0,-100.00,SSW,197,5.0,9.0,72,0.00,,,0.00,0.000000,,2013-10-20 08:52:00,
2013-10-20 04:02:00,45.0,37.0,-100.00,SSW,197,5.0,9.0,72,0.00,,,0.00,0.000000,,2013-10-20 09:02:00,
2013-10-20 04:11:00,45.0,37.0,-100.00,SSW,197,5.0,9.0,72,0.00,,,0.00,0.000000,,2013-10-20 09:11:00,
2013-10-20 04:43:00,45.0,37.0,-100.00,SSW,197,5.0,10.0,74,0.00,,,0.00,0.000000,,2013-10-20 09:43:00,
2013-10-20 04:53:00,45.0,37.0,-100.00,SSW,197,5.0,10.0,74,0.00,,,0.00,0.000000,,2013-10-20 09:53:00,
2013-10-20 05:03:00,45.0,37.0,-100.00,SSW,197,5.0,10.0,74,0.00,,,0.00,0.000000,,2013-10-20 10:03:00,
2013-10-20 05:12:00,45.0,37.0,-100.00,SSW,197,5.0,10.0,74,0.00,,,0.00,0.000000,,2013-10-20 10:12:00,
2013-10-20 05:43:00,47.0,37.0,-100.00,SW,216,8.0,12.0,68,0.00,,,0.00,0.000000,,2013-10-20 10:43:00,
2013-10-20 05:53:00,47.0,37.0,-100.00,SW,216,8.0,12.0,68,0.00,,,0.00,0.000000,,2013-10-20 10:53:00,
2013-10-20 06:02:00,47.0,37.0,-100.00,SW,216,8.0,12.0,68,0.00,,,0.00,0.000000,,2013-10-20 11:02:00,
2013-10-20 06:12:00,47.0,37.0,-100.00,SW,216,8.0,12.0,68,0.00,,,0.00,0.000000,,2013-10-20 11:12:00,
2013-10-20 06:43:00,47.0,36.0,-100.00,SSW,207,6.0,13.0,66,0.00,,,0.00,0.000000,,2013-10-20 11:43:00,
2013-10-20 06:52:00,47.0,36.0,-100.00,SSW,207,6.0,13.0,66,0.00,,,0.00,0.000000,,2013-10-20 11:52:00,
2013-10-20 07:02:00,47.0,36.0,-100.00,SSW,207,6.0,13.0,66,0.00,,,0.00,0.000000,,2013-10-20 12:02:00,
2013-10-20 07:11:00,47.0,36.0,-100.00,SSW,207,6.0,13.0,66,0.00,,,0.00,0.000000,,2013-10-20 12:11:00,
2013-10-20 07:42:00,47.0,37.0,-100.00,SSW,207,7.0,12.0,68,0.00,,,0.00,0.000000,,2013-10-20 12:42:00,
2013-10-20 07:52:00,47.0,37.0,-100.00,SSW,207,7.0,12.0,68,0.00,,,0.00,0.000000,,2013-10-20 12:52:00,
2013-10-20 08:01:00,47.0,37.0,-100.00,SSW,207,7.0,12.0,68,0.00,,,0.00,0.000000,,2013-10-20 13:01:00,
2013-10-20 08:11:00,47.0,37.0,-100.00,SSW,207,7.0,12.0,68,0.00,,,0.00,0.000000,,2013-10-20 13:11:00,
2013-10-20 08:42:00,48.0,38.0,-100.00,SSW,207,6.0,12.0,68,0.00,,,0.00,35.000000,,2013-10-20 13:42:00,
2013-10-20 08:52:00,48.0,38.0,-100.00,SSW,207,6.0,12.0,68,0.00,,,0.00,35.000000,,2013-10-20 13:52:00,
2013-10-20 09:02:00,48.0,38.0,-100.00,SSW,207,6.0,12.0,68,0.00,,,0.00,35.000000,,2013-10-20 14:02:00,
2013-10-20 09:12:00,48.0,38.0,-100.00,SSW,207,6.0,12.0,68,0.00,,,0.00,35.000000,,2013-10-20 14:12:00,
2013-10-20 09:42:00,53.0,39.0,-100.00,SW,219,10.0,15.0,58,0.00,,,0.00,258.000000,,2013-10-20 14:42:00,
2013-10-20 09:52:00,53.0,39.0,-100.00,SW,219,10.0,15.0,58,0.00,,,0.00,258.000000,,2013-10-20 14:52:00,
2013-10-20 10:02:00,53.0,39.0,-100.00,SW,219,10.0,15.0,58,0.00,,,0.00,258.000000,,2013-10-20 15:02:00,
2013-10-20 10:11:00,53.0,39.0,-100.00,SW,219,10.0,15.0,58,0.00,,,0.00,258.000000,,2013-10-20 15:11:00,
2013-10-20 10:13:00,58.0,39.0,-100.00,SW,224,11.0,20.0,50,0.00,,,0.00,468.000000,,2013-10-20 15:13:00,
2013-10-20 10:44:00,58.0,39.0,-100.00,SW,224,11.0,20.0,50,0.00,,,0.00,468.000000,,2013-10-20 15:44:00,
2013-10-20 10:54:00,58.0,39.0,-100.00,SW,224,11.0,20.0,50,0.00,,,0.00,468.000000,,2013-10-20 15:54:00,
2013-10-20 11:04:00,58.0,39.0,-100.00,SW,224,11.0,20.0,50,0.00,,,0.00,468.000000,,2013-10-20 16:04:00,
2013-10-20 11:43:00,60.0,39.0,-100.00,SW,224,12.0,20.0,46,0.00,,,0.00,647.000000,,2013-10-20 16:43:00,
2013-10-20 11:54:00,60.0,39.0,-100.00,SW,224,12.0,20.0,46,0.00,,,0.00,647.000000,,2013-10-20 16:54:00,
2013-10-20 12:03:00,60.0,39.0,-100.00,SW,224,12.0,20.0,46,0.00,,,0.00,647.000000,,2013-10-20 17:03:00,
2013-10-20 12:12:00,60.0,39.0,-100.00,SW,224,12.0,20.0,46,0.00,,,0.00,647.000000,,2013-10-20 17:12:00,
2013-10-20 12:42:00,64.0,40.0,-100.00,SW,228,10.0,20.0,42,0.00,,,0.00,766.000000,,2013-10-20 17:42:00,
2013-10-20 12:52:00,64.0,40.0,-100.00,SW,228,10.0,20.0,42,0.00,,,0.00,766.000000,,2013-10-20 17:52:00,
2013-10-20 13:02:00,64.0,40.0,-100.00,SW,228,10.0,20.0,42,0.00,,,0.00,766.000000,,2013-10-20 18:02:00,
2013-10-20 13:12:00,64.0,40.0,-100.00,SW,228,10.0,20.0,42,0.00,,,0.00,766.000000,,2013-10-20 18:12:00,
2013-10-20 13:42:00,67.0,41.0,-100.00,SW,230,12.0,21.0,38,0.00,,,0.00,801.000000,,2013-10-20 18:42:00,
2013-10-20 13:52:00,67.0,41.0,-100.00,SW,230,12.0,21.0,38,0.00,,,0.00,801.000000,,2013-10-20 18:52:00,
2013-10-20 14:02:00,67.0,41.0,-100.00,SW,230,12.0,21.0,38,0.00,,,0.00,801.000000,,2013-10-20 19:02:00,
2013-10-20 14:12:00,67.0,41.0,-100.00,SW,230,12.0,21.0,38,0.00,,,0.00,801.000000,,2013-10-20 19:12:00,
2013-10-20 14:42:00,68.0,40.0,-100.00,SW,216,10.0,20.0,36,0.00,,,0.00,790.000000,,2013-10-20 19:42:00,
2013-10-20 14:52:00,68.0,40.0,-100.00,SW,216,10.0,20.0,36,0.00,,,0.00,790.000000,,2013-10-20 19:52:00,
2013-10-20 15:02:00,68.0,40.0,-100.00,SW,216,10.0,20.0,36,0.00,,,0.00,790.000000,,2013-10-20 20:02:00,
2013-10-20 15:11:00,68.0,40.0,-100.00,SW,216,10.0,20.0,36,0.00,,,0.00,790.000000,,2013-10-20 20:11:00,
2013-10-20 15:43:00,70.0,39.0,-100.00,SW,229,11.0,21.0,32,0.00,,,0.00,686.000000,,2013-10-20 20:43:00,
2013-10-20 15:52:00,70.0,39.0,-100.00,SW,229,11.0,21.0,32,0.00,,,0.00,686.000000,,2013-10-20 20:52:00,
2013-10-20 16:02:00,70.0,39.0,-100.00,SW,229,11.0,21.0,32,0.00,,,0.00,686.000000,,2013-10-20 21:02:00,
2013-10-20 16:11:00,70.0,39.0,-100.00,SW,229,11.0,21.0,32,0.00,,,0.00,686.000000,,2013-10-20 21:11:00,
2013-10-20 16:13:00,69.0,36.0,-100.00,SW,214,10.0,23.0,30,0.00,,,0.00,535.000000,,2013-10-20 21:13:00,
2013-10-20 16:44:00,69.0,36.0,-100.00,SW,214,10.0,23.0,30,0.00,,,0.00,535.000000,,2013-10-20 21:44:00,
2013-10-20 16:54:00,69.0,36.0,-100.00,SW,214,10.0,23.0,30,0.00,,,0.00,535.000000,,2013-10-20 21:54:00,
2013-10-20 17:04:00,69.0,36.0,-100.00,SW,214,10.0,23.0,30,0.00,,,0.00,535.000000,,2013-10-20 22:04:00,
2013-10-20 17:13:00,69.0,36.0,-100.00,SW,216,6.0,17.0,30,0.00,,,0.00,315.000000,,2013-10-20 22:13:00,
2013-10-20 17:43:00,69.0,36.0,-100.00,SW,216,6.0,17.0,30,0.00,,,0.00,315.000000,,2013-10-20 22:43:00,
2013-10-20 17:53:00,69.0,36.0,-100.00,SW,216,6.0,17.0,30,0.00,,,0.00,315.000000,,2013-10-20 22:53:00,
2013-10-20 18:03:00,69.0,36.0,-100.00,SW,216,6.0,17.0,30,0.00,,,0.00,315.000000,,2013-10-20 23:03:00,
2013-10-20 18:43:00,64.0,35.0,-100.00,SSW,201,4.0,12.0,34,0.00,,,0.00,124.000000,,2013-10-20 23:43:00,
2013-10-20 18:52:00,64.0,35.0,-100.00,SSW,201,4.0,12.0,34,0.00,,,0.00,124.000000,,2013-10-20 23:52:00,
2013-10-20 19:02:00,64.0,35.0,-100.00,SSW,201,4.0,12.0,34,0.00,,,0.00,124.000000,,2013-10-21 00:02:00,
2013-10-20 19:11:00,64.0,35.0,-100.00,SSW,201,4.0,12.0,34,0.00,,,0.00,124.000000,,2013-10-21 00:11:00,
2013-10-20 19:43:00,60.0,36.0,-100.00,SSW,201,4.0,7.0,40,0.00,,,0.00,3.000000,,2013-10-21 00:43:00,
2013-10-20 19:52:00,60.0,36.0,-100.00,SSW,201,4.0,7.0,40,0.00,,,0.00,3.000000,,2013-10-21 00:52:00,
2013-10-20 20:02:00,60.0,36.0,-100.00,SSW,201,4.0,7.0,40,0.00,,,0.00,3.000000,,2013-10-21 01:02:00,
2013-10-20 20:12:00,60.0,36.0,-100.00,SSW,201,4.0,7.0,40,0.00,,,0.00,3.000000,,2013-10-21 01:12:00,
2013-10-20 20:42:00,58.0,37.0,-100.00,SSW,196,4.0,7.0,46,0.00,,,0.00,0.000000,,2013-10-21 01:42:00,
2013-10-20 20:52:00,58.0,37.0,-100.00,SSW,196,4.0,7.0,46,0.00,,,0.00,0.000000,,2013-10-21 01:52:00,
2013-10-20 21:02:00,58.0,37.0,-100.00,SSW,196,4.0,7.0,46,0.00,,,0.00,0.000000,,2013-10-21 02:02:00,
2013-10-20 21:12:00,58.0,37.0,-100.00,SSW,196,4.0,7.0,46,0.00,,,0.00,0.000000,,2013-10-21 02:12:00,
2013-10-20 21:42:00,54.0,37.0,-100.00,SSW,196,4.0,8.0,53,0.00,,,0.00,0.000000,,2013-10-21 02:42:00,
2013-10-20 21:52:00,54.0,37.0,-100.00,SSW,196,4.0,8.0,53,0.00,,,0.00,0.000000,,2013-10-21 02:52:00,
2013-10-20 22:03:00,54.0,37.0,-100.00,SSW,196,4.0,8.0,53,0.00,,,0.00,0.000000,,2013-10-21 03:03:00,
2013-10-20 22:12:00,54.0,37.0,-100.00,SSW,196,4.0,8.0,53,0.00,,,0.00,0.000000,,2013-10-21 03:12:00,
2013-10-20 22:13:00,53.0,39.0,-100.00,SSW,206,4.0,7.0,59,0.00,,,0.00,0.000000,,2013-10-21 03:13:00,
2013-10-20 22:45:00,53.0,39.0,-100.00,SSW,206,4.0,7.0,59,0.00,,,0.00,0.000000,,2013-10-21 03:45:00,
2013-10-20 22:55:00,53.0,39.0,-100.00,SSW,206,4.0,7.0,59,0.00,,,0.00,0.000000,,2013-10-21 03:55:00,
2013-10-20 23:04:00,53.0,39.0,-100.00,SSW,206,4.0,7.0,59,0.00,,,0.00,0.000000,,2013-10-21 04:04:00,
2013-10-20 23:13:00,52.0,39.0,-100.00,SSW,192,5.0,9.0,62,0.00,,,0.00,0.000000,,2013-10-21 04:13:00,
2013-10-20 23:44:00,52.0,39.0,-100.00,SSW,192,5.0,9.0,62,0.00,,,0.00,0.000000,,2013-10-21 04:44:00,
2013-10-20 23:53:00,52.0,39.0,-100.00,SSW,192,5.0,9.0,62,0.00,,,0.00,0.000000,,2013-10-21 04:53:00,